• în România
  • Lista ţărilor
  • Pe 7 zile
  • Temperatura apei
  • Hartă satelitară
  • Meteo pe hartă
  • Widget-uri
  • user-avatar
    Intrare

    Meteo pe oră la Saurimo

    Astăzi, 27 Aprilie, Joi

    Timp Temperatura Precipitaţii Vânt Presiune Umiditate
    00:00 +22°C° 1,1 mm 1 m/s 671 mmHg 94%
    01:00 +21°C° 1,1 mm 1 m/s 671 mmHg 95%
    02:00 +21°C° 1,5 mm 1 m/s 670 mmHg 95%
    03:00 +20°C° 1,5 mm 2 m/s 670 mmHg 96%
    04:00 +19°C° 1,5 mm 2 m/s 670 mmHg 97%
    05:00 +20°C° 0,2 mm 2 m/s 671 mmHg 96%
    06:00 +20°C° 0,2 mm 2 m/s 671 mmHg 95%
    07:00 +20°C° 0,2 mm 3 m/s 672 mmHg 94%
    08:00 +22°C° 0 mm 3 m/s 672 mmHg 86%
    09:00 +24°C° 0 mm 3 m/s 673 mmHg 79%
    10:00 +26°C° 0 mm 3 m/s 673 mmHg 71%
    11:00 +27°C° 0,2 mm 3 m/s 673 mmHg 67%
    12:00 +28°C° 0,2 mm 3 m/s 672 mmHg 64%
    13:00 +29°C° 0,2 mm 2 m/s 672 mmHg 60%
    14:00 +28°C° 0,2 mm 2 m/s 671 mmHg 64%
    15:00 +28°C° 0,2 mm 2 m/s 671 mmHg 69%
    16:00 +27°C° 0,2 mm 1 m/s 670 mmHg 73%
    17:00 +26°C° 0,1 mm 1 m/s 670 mmHg 78%
    18:00 +24°C° 0,1 mm 1 m/s 671 mmHg 83%
    19:00 +23°C° 0,1 mm 1 m/s 671 mmHg 88%
    20:00 +22°C° 0 mm 1 m/s 671 mmHg 88%
    21:00 +22°C° 0 mm 1 m/s 671 mmHg 89%
    22:00 +22°C° 0 mm 1 m/s 671 mmHg 90%
    23:00 +21°C° 0 mm 1 m/s 671 mmHg 91%

    Mâine, 28 Aprilie, Vineri

    Timp Temperatura Precipitaţii Vânt Presiune Umiditate
    00:00 +21°C° 0 mm 1 m/s 671 mmHg 92%
    01:00 +21°C° 0 mm 1 m/s 671 mmHg 93%
    02:00 +21°C° 0,1 mm 1 m/s 671 mmHg 94%
    03:00 +20°C° 0,1 mm 1 m/s 671 mmHg 95%
    04:00 +20°C° 0,1 mm 1 m/s 670 mmHg 97%
    05:00 +19°C° 0 mm 2 m/s 671 mmHg 95%
    06:00 +20°C° 0 mm 2 m/s 672 mmHg 93%
    07:00 +20°C° 0 mm 2 m/s 672 mmHg 91%
    08:00 +22°C° 0 mm 3 m/s 673 mmHg 82%
    09:00 +25°C° 0 mm 3 m/s 673 mmHg 73%
    10:00 +27°C° 0 mm 3 m/s 674 mmHg 63%
    11:00 +28°C° 0 mm 3 m/s 673 mmHg 60%
    12:00 +29°C° 0 mm 3 m/s 673 mmHg 56%
    13:00 +30°C° 0 mm 2 m/s 672 mmHg 52%
    14:00 +29°C° 0 mm 2 m/s 672 mmHg 55%
    15:00 +29°C° 0 mm 2 m/s 671 mmHg 57%
    16:00 +29°C° 0 mm 1 m/s 671 mmHg 60%
    17:00 +27°C° 0 mm 1 m/s 671 mmHg 65%
    18:00 +25°C° 0 mm 1 m/s 671 mmHg 71%
    19:00 +23°C° 0 mm 1 m/s 671 mmHg 77%
    20:00 +23°C° 0 mm 1 m/s 671 mmHg 78%
    21:00 +22°C° 0 mm 1 m/s 672 mmHg 80%
    22:00 +22°C° 0 mm 1 m/s 672 mmHg 81%
    23:00 +21°C° 0,1 mm 1 m/s 672 mmHg 83%

    Poimâine, 29 Aprilie, Sâmbătă

    Timp Temperatura Precipitaţii Vânt Presiune Umiditate
    00:00 +21°C° 0,1 mm 1 m/s 672 mmHg 85%
    01:00 +20°C° 0,1 mm 1 m/s 671 mmHg 87%
    02:00 +20°C° 0 mm 1 m/s 671 mmHg 88%
    03:00 +19°C° 0 mm 2 m/s 671 mmHg 89%
    04:00 +18°C° 0 mm 2 m/s 671 mmHg 90%
    05:00 +19°C° 0 mm 2 m/s 672 mmHg 88%
    06:00 +19°C° 0 mm 2 m/s 672 mmHg 87%
    07:00 +20°C° 0 mm 3 m/s 673 mmHg 85%
    08:00 +22°C° 0 mm 3 m/s 674 mmHg 77%
    09:00 +25°C° 0 mm 3 m/s 674 mmHg 69%
    10:00 +27°C° 0 mm 3 m/s 675 mmHg 61%
    11:00 +28°C° 0 mm 3 m/s 674 mmHg 57%
    12:00 +28°C° 0 mm 3 m/s 673 mmHg 54%
    13:00 +29°C° 0 mm 2 m/s 672 mmHg 51%
    14:00 +29°C° 0 mm 2 m/s 672 mmHg 53%
    15:00 +29°C° 0 mm 2 m/s 671 mmHg 55%
    16:00 +29°C° 0 mm 1 m/s 671 mmHg 57%
    17:00 +27°C° 0 mm 1 m/s 671 mmHg 62%
    18:00 +25°C° 0 mm 1 m/s 671 mmHg 67%
    19:00 +23°C° 0 mm 1 m/s 671 mmHg 73%
    20:00 +22°C° 0 mm 1 m/s 671 mmHg 73%
    21:00 +22°C° 0 mm 1 m/s 671 mmHg 74%
    22:00 +21°C° 0 mm 1 m/s 672 mmHg 75%
    23:00 +21°C° 0 mm 1 m/s 671 mmHg 76%

    30 Aprilie, Duminică

    Timp Temperatura Precipitaţii Vânt Presiune Umiditate
    00:00 +20°C° 0 mm 1 m/s 671 mmHg 76%
    01:00 +20°C° 0 mm 1 m/s 671 mmHg 76%
    02:00 +19°C° 0 mm 2 m/s 671 mmHg 76%
    03:00 +19°C° 0 mm 2 m/s 671 mmHg 76%
    04:00 +18°C° 0 mm 2 m/s 671 mmHg 76%
    05:00 +19°C° 0 mm 2 m/s 671 mmHg 76%
    06:00 +19°C° 0 mm 3 m/s 672 mmHg 75%
    07:00 +19°C° 0 mm 3 m/s 672 mmHg 75%
    08:00 +22°C° 0 mm 3 m/s 673 mmHg 68%
    09:00 +25°C° 0 mm 4 m/s 673 mmHg 61%
    10:00 +27°C° 0 mm 4 m/s 674 mmHg 54%
    11:00 +28°C° 0 mm 4 m/s 673 mmHg 51%
    12:00 +28°C° 0 mm 3 m/s 672 mmHg 47%
    13:00 +29°C° 0 mm 3 m/s 672 mmHg 44%
    14:00 +29°C° 0 mm 2 m/s 671 mmHg 47%
    15:00 +29°C° 0 mm 2 m/s 671 mmHg 50%
    16:00 +28°C° 0 mm 1 m/s 671 mmHg 54%
    17:00 +26°C° 0 mm 1 m/s 671 mmHg 58%
    18:00 +24°C° 0 mm 2 m/s 671 mmHg 62%
    19:00 +21°C° 0 mm 2 m/s 671 mmHg 67%
    20:00 +21°C° 0 mm 2 m/s 671 mmHg 67%
    21:00 +21°C° 0 mm 1 m/s 671 mmHg 68%
    22:00 +20°C° 0 mm 1 m/s 671 mmHg 69%
    23:00 +20°C° 0 mm 1 m/s 671 mmHg 69%

    1 Mai, Luni

    Timp Temperatura Precipitaţii Vânt Presiune Umiditate
    00:00 +19°C° 0 mm 2 m/s 671 mmHg 69%
    01:00 +19°C° 0 mm 2 m/s 671 mmHg 69%
    02:00 +18°C° 0 mm 2 m/s 671 mmHg 69%
    03:00 +18°C° 0 mm 2 m/s 671 mmHg 68%
    04:00 +18°C° 0 mm 2 m/s 671 mmHg 67%
    05:00 +18°C° 0 mm 3 m/s 671 mmHg 68%
    06:00 +18°C° 0 mm 3 m/s 671 mmHg 69%
    07:00 +19°C° 0 mm 3 m/s 672 mmHg 70%
    08:00 +21°C° 0 mm 3 m/s 672 mmHg 65%
    09:00 +24°C° 0 mm 3 m/s 673 mmHg 59%
    10:00 +26°C° 0 mm 4 m/s 673 mmHg 54%
    11:00 +27°C° 0 mm 3 m/s 672 mmHg 51%
    12:00 +28°C° 0 mm 3 m/s 672 mmHg 49%
    13:00 +29°C° 0 mm 3 m/s 671 mmHg 46%
    14:00 +29°C° 0 mm 2 m/s 671 mmHg 48%
    15:00 +28°C° 0 mm 2 m/s 671 mmHg 51%
    16:00 +28°C° 0 mm 1 m/s 671 mmHg 54%
    17:00 +26°C° 0 mm 1 m/s 671 mmHg 59%
    18:00 +24°C° 0 mm 1 m/s 671 mmHg 65%
    19:00 +22°C° 0 mm 1 m/s 671 mmHg 70%
    20:00 +21°C° 0 mm 1 m/s 671 mmHg 71%
    21:00 +21°C° 0 mm 1 m/s 671 mmHg 72%
    22:00 +20°C° 0 mm 1 m/s 671 mmHg 73%
    23:00 +20°C° 0 mm 1 m/s 671 mmHg 74%

    2 Mai, Marţi

    Timp Temperatura Precipitaţii Vânt Presiune Umiditate
    00:00 +20°C° 0 mm 1 m/s 670 mmHg 74%
    01:00 +18°C° 0 mm 2 m/s 670 mmHg 74%
    02:00 +18°C° 0 mm 2 m/s 670 mmHg 75%
    03:00 +18°C° 0 mm 2 m/s 670 mmHg 75%
    04:00 +17°C° 0 mm 2 m/s 670 mmHg 76%
    05:00 +18°C° 0 mm 2 m/s 670 mmHg 75%
    06:00 +18°C° 0 mm 2 m/s 671 mmHg 75%
    07:00 +19°C° 0 mm 3 m/s 671 mmHg 75%
    08:00 +21°C° 0 mm 3 m/s 672 mmHg 68%
    09:00 +24°C° 0 mm 3 m/s 672 mmHg 61%
    10:00 +26°C° 0 mm 4 m/s 672 mmHg 54%
    11:00 +27°C° 0 mm 3 m/s 672 mmHg 51%
    12:00 +28°C° 0 mm 3 m/s 671 mmHg 48%
    13:00 +29°C° 0 mm 2 m/s 671 mmHg 45%
    14:00 +29°C° 0 mm 2 m/s 670 mmHg 48%
    15:00 +29°C° 0 mm 2 m/s 670 mmHg 50%
    16:00 +28°C° 0 mm 1 m/s 670 mmHg 53%
    17:00 +26°C° 0 mm 1 m/s 670 mmHg 58%
    18:00 +24°C° 0 mm 1 m/s 670 mmHg 64%
    19:00 +22°C° 0 mm 1 m/s 670 mmHg 69%
    20:00 +22°C° 0 mm 1 m/s 670 mmHg 71%
    21:00 +21°C° 0 mm 1 m/s 670 mmHg 72%
    22:00 +21°C° 0 mm 1 m/s 671 mmHg 74%
    23:00 +20°C° 0 mm 1 m/s 670 mmHg 74%
    Arată mai mult